DateTime,Index
2004091318,0.0
2004091400,0.0
2004091406,0.0
2004091412,1225.0
2004091418,2500.0
2004091500,3025.0
2004091506,3025.0
2004091512,3600.0
2004091518,3600.0
2004091600,3600.0
2004091606,3600.0
2004091612,4900.0
2004091618,4225.0
2004091700,3600.0
2004091706,3025.0
2004091712,2500.0
2004091718,0.0
2004091800,1600.0
2004091806,2025.0
2004091812,2025.0
2004091818,1600.0
2004091900,1600.0
2004091906,1600.0
2004091912,1600.0
2004091918,2025.0
2004092000,2500.0
2004092006,3025.0
2004092012,3600.0
2004092018,5625.0
2004092100,5625.0
2004092106,5625.0
2004092112,5625.0
2004092118,5625.0
2004092200,6400.0
2004092206,7225.0
2004092212,7225.0
2004092218,7225.0
2004092300,7225.0
2004092306,7225.0
2004092312,6400.0
2004092318,5625.0
2004092400,4900.0
2004092406,5625.0
2004092412,6400.0
2004092418,7225.0
2004092500,7225.0
2004092506,8100.0
2004092512,10000.0
2004092518,11025.0
2004092600,11025.0
2004092606,9025.0
2004092612,5625.0
2004092618,3025.0
2004092700,2025.0
2004092706,1600.0
2004092712,1225.0
2004092718,0.0
2004092800,0.0
2004092806,0.0
2004092812,0.0
2004092818,0.0
2004092900,0.0
2004092906,1225.0
2004092912,1225.0
